Skip Page Navigation
NASA JPL Caltech
NASA Logo - Jet Propulsion Laboratory + View the NASA Portal
+ Center for Near-Earth Object Studies
JPL Home Earth Solar System Stars & Galaxies Technology
JPL Solar System Dynamics
BODIES ORBITS EPHEMERIDES TOOLS PHYSICAL DATA DISCOVERY FAQ SITE MAP
JPL Small-Body Database Browser
Search: [ help ]  
277816 Varese (2006 GL)
Classification: Inner Main-belt Asteroid          SPK-ID: 2277816
Ephemeris | Orbit Diagram | Orbital Elements | Mission Design | Physical Parameters | Discovery Circumstances ]

[ show orbit diagram ]
Orbital Elements at Epoch 2459000.5 (2020-May-31.0) TDB
Reference: JPL 9 (heliocentric ecliptic J2000)
 Element Value Uncertainty (1-sigma)   Units 
e .06166002714638513 9.3409e-08  
a 1.828591782035211 1.1414e-08 au
q 1.715840763115263 1.6943e-07 au
i 22.02792817280496 1.5324e-05 deg
node 19.88899128973251 1.4976e-05 deg
peri 138.4164441273951 0.00014014 deg
M 287.6181624641795 0.0001344 deg
tp 2459182.093657456898
(2020-Nov-28.59365746)
0.00033758 TDB
period 903.1784617533507
2.47
8.4561e-06
2.315e-08
d
yr
n .3985923217224732 3.7319e-09 deg/d
Q 1.941342800955159 1.2117e-08 au
  Orbit Determination Parameters
   # obs. used (total)      69  
   data-arc span      8066 days (22.08 yr)  
   first obs. used      1997-09-28  
   last obs. used      2019-10-29  
   planetary ephem.      DE431  
   SB-pert. ephem.      SB431-N16  
   condition code      0  
   norm. resid. RMS      .63714  
   source      ORB  
   producer      Otto Matic  
   solution date      2020-Feb-25 14:15:07  

Additional Information
 Earth MOID = .735951 au 
 Jupiter MOID = 3.03502 au 
 T_jup = 3.943 
[ show covariance matrix ]

Ephemeris | Orbit Diagram | Orbital Elements | Mission Design | Physical Parameters | Discovery Circumstances ]

Physical Parameter Table
Parameter Symbol Value Units Sigma Reference Notes
absolute magnitude H 18.6   n/a MPO382388  

277816 Varese           Discovered 2006 Apr. 2 by L. Buzzi and F. Luppi at Schiaparelli Observatory.
Varese is "the city of gardens", in a lake district with beautiful landscapes on the border of the Italian Alps, near four UNESCO monumental sites. On Mount Campo dei Fiori, just north of Varese, lies the Astronomical Observatory G. V. Schiaparelli, where this object was discovered.
NOTE: some special characters may not display properly (any characters within {} are an attempt to place the proper accent above a character)
Reference: MPC batch dated 2013-04-25Last Updated: 2013-04-29
Ephemeris | Orbit Diagram | Orbital Elements | Mission Design | Physical Parameters | Discovery Circumstances ]
ABOUT SSD CREDITS/AWARDS PRIVACY/COPYRIGHT GLOSSARY LINKS
FirstGov 2020-Aug-09 00:27 UT
(server date/time)  
NASA Home Page
Site Manager:   Ryan S. Park
Webmaster  Alan B. Chamberlin